Regional Weather Roundup
Issued by NWS Pendleton, OR

Home | Current Version | Previous Version | Text Only | Print | Product List | Glossary On
Versions: 1 2 3 4 5 6 7 8 9 10 11 12 13 14 15 16 17 18 19 20 21 22 23 24 25 26 27 28 29 30 31 32 33 34 35 36 37 38 39 40 41 42 43 44 45 46 47 48 49 50
000
ASUS46 KPDT 251925
RWRPDT
PENDLETON REGIONAL WEATHER ROUNDUP
NATIONAL WEATHER SERVICE PENDLETON OREGON
1200 PM PDT MON SEP 25 2017

NOTE: FAIR INDICATES FEW OR NO CLOUDS BELOW 12,000 FEET WITH NO
SIGNIFICANT WEATHER AND/OR OBSTRUCTIONS TO VISIBILITY.

# INDICATES UNOFFICIAL STATION AND DATA

WAZ520-252010-
EAST SLOPES OF WASHINGTON CASCADES

CITY            SKY/WX      TMP DP  RH  WIND    PRES   REMARKS
#BULLFROG       N/A         60  51  72  W5      N/A
#CLE ELUM HS    N/A         60  48  64  W3      30.01S
#CLE ELUM LAKE  N/A         58  50  75  CALM    30.00S
#EASTON DOT     N/A         57  49  75  N1      N/A
#ELK HTS DOT    N/A         63  62  97  SW3     N/A
#GLENWOOD       N/A         59  53  80  CALM    30.05F
#NELSON 3SW     N/A         57  51  80  CALM    30.22S
#NILE           N/A         59  50  72  CALM    29.31F
#TEANAWAY 4NE   N/A         61  53  75  W2      N/A
#TROUT LAKE 1NE N/A         58  52  80  CALM    30.05S
#TROUT LAKE 1E  N/A         59  52  78  CALM    30.11S
$$

WAZ521-252010-
SIMCOE HIGHLANDS

CITY            SKY/WX      TMP DP  RH  WIND    PRES   REMARKS
#BICKLETON HS   N/A         63  47  56  SE5     30.04S
#CENTERVILLE 1SWN/A         64  48  56  W9      29.99F
#GOLDENDALE 1NE N/A         64  38  38  SW3     N/A
#GOLDENDALE 4W  N/A         64  30  28  W8      30.10F
#GOODNOE HILLS  N/A         66  51  58  W10     N/A
#LYLE 6NE       N/A         62  51  67  S7      30.05F
#PITT 4SE       N/A         60  49  67  SW7     30.07S
$$

WAZ026-252010-
KITTITAS VALLEY

CITY            SKY/WX      TMP DP  RH  WIND    PRES   REMARKS
ELLENSBURG AP   CLOUDY      68  49  51  W13     30.05F
#ELLENSBURG CWU N/A         64  51  63  W5      29.96S
#ELLENSBURG 3NE N/A         64  52  65  N6      28.13S
#ELLENSBURG 1E  N/A         64  51  63  NW1     30.05F
#KITTITAS 3S    N/A         63  53  70  W3      30.00F
#MANASTASH RDG  N/A         62  62  100 NW6     N/A
#ROCKY CYN DOT  N/A         66  50  56  NW10    N/A
#RYEGRASS DOT   N/A         61  46  58  S6      N/A
$$

WAZ027-252010-
YAKIMA VALLEY

CITY            SKY/WX      TMP DP  RH  WIND    PRES   REMARKS
SUNNYSIDE AP    MOCLDY      64  46  52  CALM    30.05F
YAKIMA AIRPORT  CLOUDY      69  48  47  CALM    30.05F
YAKIMA-VAGABOND PTCLDY      65  46  50  CALM    30.04S
#DONALD 2NE     N/A         70  26  19  SW2     30.04F
#GRANDVIEW      N/A         66  47  50  CALM    30.04F
#MABTON         N/A         67  50  54  CALM    30.03F
#MOXEE 2E       N/A         66  N/A N/A W1      29.94F
#NACHES 2SW     N/A         62  52  70  W2      30.07S
#OUTLOOK DOT    N/A         65  47  52  CALM    30.02S
#PARKER DOT     N/A         67  49  52  E2      30.04S
#TERRACE HTS    N/A         67  49  52  CALM    29.99F
#TOPPENISH      N/A         65  50  58  CALM    29.95F
#I82 S UMTANUM RN/A         65  47  52  S2      N/A
#UNION GAP DOT  N/A         66  47  50  CALM    30.08S
#W YAKIMA       N/A         66  52  61  CALM    30.02S
#WHITE SWAN 5E  N/A         66  50  56  CALM    30.03F
#WILEY CITY 3W  N/A         65  44  46  CALM    30.03S
#ZILLAH DOT     N/A         66  48  52  S1      N/A
$$

WAZ028-252010-
LOWER COLUMBIA BASIN...WASHINGTON

CITY            SKY/WX      TMP DP  RH  WIND    PRES   REMARKS
HANFORD         CLOUDY      68  44  42  E3      30.02F
PASCO           CLOUDY      70  46  42  CALM    30.04F
PROSSER AWOS    N/A         68  46  45  CALM    30.07F
RICHLAND AWOS   PTCLDY      72  49  44  CALM    30.04F
#BENTON CITY    N/A         70  50  49  CALM    29.94F
#CONNELL 5N     N/A         67  47  49  CALM    30.03F
#CONNELL 5NW    N/A         67  49  52  SW1     29.98F
#ELTOPIA 6NW    N/A         65  53  65  CALM    29.01F
#KAHLOTUS       N/A         67  47  49  SW1     30.02F
#KENNEWICK 3S   N/A         67  52  59  CALM    30.03S
#PATERSON       N/A         66  52  61  W1      30.02F
#PROSSER DOT    N/A         69  46  44  CALM    30.05F
#SAGEMOOR 2W    N/A         66  50  56  CALM    29.89F
#TOUCHET 2S     N/A         70  50  49  SW9     30.01F
#WEST PASCO     N/A         76  52  43  CALM    30.04F
$$

WAZ029-252010-
FOOTHILLS OF THE BLUES...WASHINGTON

CITY            SKY/WX      TMP DP  RH  WIND    PRES   REMARKS
WALLA WALLA AP  MOCLDY      70  45  41  SW12    30.05F
#CLYDE 6NW      N/A         67  48  50  SW12    30.01F
#LOWDEN 2SE     N/A         72  49  44  W7      30.00F
#PLEASANT VIEW 1N/A         68  46  45  SW9     30.05F
#PRESCOTT       N/A         74  48  40  CALM    30.02F
#WHITMAN COLLEGEN/A         69  46  44  W10     30.07F
#WAITSBURG 6SSE N/A         68  42  39  SW6     30.04F
#WALLA WALLA 5E N/A         71  46  41  SW15    N/A
#WALLA WALLA U  N/A         70  48  46  CALM    30.03S
#WHITMAN MISSIONN/A         70  48  46  W3      30.04F
$$

WAZ030-252010-
BLUE MOUNTAINS...WASHINGTON

CITY            SKY/WX      TMP DP  RH  WIND    PRES   REMARKS
#DIXIE 5SE      N/A         62  43  50  SW10    30.01F
$$

ORZ009-041-WAZ024-252010-
COLUMBIA RIVER GORGE

CITY            SKY/WX      TMP DP  RH  WIND    PRES   REMARKS
THE DALLES AP   MOCLDY      70  50  49  W3      30.05F
#ARLINGTON AIRPON/A         66  50  56  W12     30.04F
#CELILO DOT     N/A         70  49  47  W6      N/A
#LYLE           N/A         66  52  61  NW8G24  30.06S
#MARYHILL       N/A         67  49  52  N1      N/A
#MURDOCK        N/A         67  53  61  NW16G25 30.01F
#RUFUS DOT      N/A         66  N/A N/A NW8     N/A
#SMITHVILLE     N/A         67  52  59  N12G24  29.98F

$$

ORZ510-252010-
NORTH CENTRAL OREGON

CITY            SKY/WX      TMP DP  RH  WIND    PRES   REMARKS
#ANTELOPE       N/A         61  42  50  SW7     29.95F
#CHENOWITH 1W   N/A         59  50  72  W21     N/A
#COW CYN RST AREN/A         59  35  40  S8      N/A
#DUFUR          N/A         68  48  49  N2      30.01F
#DUFUR 9E       N/A         63  46  54  NW6     30.07F
#GRASS VALLEY 1SN/A         65  45  48  W7      30.10F
#KENT DOT       N/A         64  36  35  W8      N/A
#MAUPIN SCHOOL  N/A         66  46  48  CALM    30.10F
#MORO SCHOOL    N/A         65  50  58  W7      30.06F
#SHANIKO 5WSW   N/A         57  29  34  S8      N/A
#SHANIKO 4NW    N/A         60  39  46  SW5     30.13R
#TYGH VALLEY 2NEN/A         67  49  52  CALM    30.04F
#WAPANITIA AIRPON/A         67  47  49  S2      30.05F
#WASCO DOT      N/A         66  45  47  W12     N/A
#WASCO 5NE      N/A         65  49  56  W7      30.02F
$$

ORZ511-252010-
CENTRAL OREGON

CITY            SKY/WX      TMP DP  RH  WIND    PRES   REMARKS
BEND AIRPORT    MOCLDY      63  39  41  CALM    30.14F
MADRAS AIRPORT  CLOUDY      64  63  97  SW3     30.13F
PRINEVILLE AP   CLOUDY      61  36  39  CALM    30.14F
REDMOND AIRPORT CLOUDY      64  35  34  CALM    30.13F
#ASHWOOD SCHOOL N/A         63  42  46  CALM    30.06F
#BEND 1SW       N/A         58  44  60  CALM    N/A
#BEND-AWBREY    N/A         61  45  56  SW3     30.07F
#BEND-KIM LN    N/A         62  44  52  E1      30.02F
#CULVER         N/A         63  41  44  CALM    29.96F
#CULVER 8W      N/A         65  37  35  CALM    30.10F
#LAKE BILLY CHINN/A         63  N/A N/A N3      30.15F
#MADRAS 4S      N/A         64  15  15  NW1     N/A
#POWELL BUTTE   N/A         62  39  43  CALM    30.07F
#PRINEVILLE     N/A         60  43  53  CALM    30.18F
#WARM SPRINGS   N/A         62  42  48  CALM    29.94F

$$


ORZ509-252010-
EAST SLOPES OF OREGON CASCADES

CITY            SKY/WX      TMP DP  RH  WIND    PRES   REMARKS
SISTERS AWOS    N/A         61  43  51  CALM    N/A
#CAMP SHERMAN   N/A         64  42  45  CALM    30.14F
#LA PINE 4NW    N/A         54  40  59  CALM    30.19F
#LAVA BUTTE DOT N/A         55  38  53  SE3     N/A
#SISTERS ODOT   N/A         60  42  51  CALM    N/A
#SISTERS 3N     N/A         62  45  54  E3      30.11F
#SUNRIVER       N/A         56  44  64  SE2     30.14F
#TUMALO 3W      N/A         60  40  47  CALM    29.94F
#WANOGA BUTTE D N/A         51  36  56  W3      N/A

$$

ORZ044-252010-
LOWER COLUMBIA BASIN...OREGON

CITY            SKY/WX      TMP DP  RH  WIND    PRES   REMARKS
HERMISTON       MOCLDY      71  46  41  W9      30.04F
#BOARDMAN SCHOOLN/A         64  52  65  NW1     30.03F
#BOARDMAN 8SW   N/A         70  49  47  W8      30.03F
#ECHO 8SW       N/A         72  46  39  W5      30.04F
#I-84 EX 198 DOTN/A         67  46  47  E3      N/A
#IONE SCHOOL    N/A         69  43  39  NW7     30.03F
#UMATILLA       N/A         67  49  52  CALM    29.96F
$$

ORZ507-252010-
NORTHERN FOOTHILLS OF THE BLUES

CITY            SKY/WX      TMP DP  RH  WIND    PRES   REMARKS
PENDLETON AIRPT MOCLDY      69  41  36  W6      30.06F
#ADAMS 3WNW     N/A         67  44  43  SW8     30.03F
#ATHENA         N/A         66  44  45  SW7     30.06F
#CAYUSE         N/A         67  44  43  W5      30.03F
#HELIX SCHOOL   N/A         65  44  46  N7      30.04F
#HELIX 3N       N/A         64  43  46  SW12    30.04F
#HOLDMAN 5SE    N/A         66  45  47  SW7     30.05F
#HOLDMAN 6E     N/A         67  45  45  S12     29.84F
#M-F GROVE ELEM N/A         70  40  34  SW6     30.03F
#M-FREEWATER 5SEN/A         69  47  45  SW5     30.04F
#PENDLETON DNTN N/A         73  45  37  CALM    30.04S
#PDT SUNRIDGE   N/A         69  44  40  NW3     30.06F
#PENDLETON 7NW  N/A         70  50  49  CALM    N/A
#PILOT ROCK     N/A         70  44  39  CALM    30.07F
#TUTUILLA       N/A         70  45  41  CALM    30.12F
#UMAPINE 2E     N/A         71  51  49  SW5     30.01F
#WESTON SCHOOL  N/A         65  41  41  N6      29.98F

$$

ORZ508-252010-
SOUTHERN FOOTHILLS OF THE BLUES

CITY            SKY/WX      TMP DP  RH  WIND    PRES   REMARKS
LEXINGTON       MOCLDY      72  39  30  SW8     30.09F
#AJAX           N/A         65  38  37  W7      30.22F
#FOSSIL SCHOOL  N/A         65  41  41  SW3     30.03F
#HEPPNER EOC    N/A         67  39  36  W7      29.97F
#HEPPNER 4NE    N/A         64  39  40  W7      30.03F
#LEXINGTON 2SE  N/A         72  42  34  CALM    30.01F
#MIKKALO        N/A         67  41  39  NW12    30.16F
#OLEX 4N        N/A         68  46  45  W3      30.04F
#RUGGS 5NE      N/A         67  38  34  CALM    30.27R
#RUGGS 2SW      N/A         66  39  37  W2      30.05F

$$

ORZ502-503-252010-
BLUE MOUNTAINS

CITY            SKY/WX      TMP DP  RH  WIND    PRES   REMARKS
MEACHAM         MOCLDY      61  39  44  CALM    30.11F
#BATTLE MTN DOT N/A         54  37  52  SE6     N/A
#GRANITE        N/A         60  41  49  E2      30.07S
#GREENHORN 9SW  N/A         67  40  37  W2      26.30F
#HEPPNER 15SE   N/A         61  39  44  W3      30.01F
#LADD CYN SMT   N/A         60  36  41  E8      N/A
#LADD CREEK ODOTN/A         58  40  51  NE5     N/A
#LONG CREEK HS  N/A         61  41  48  N1      30.13F
#N POWDER DOT   N/A         63  39  41  W1      N/A
#PIKES PEAK     N/A         58  41  53  N13     27.99S
#SUMMERVILLE 5NWN/A         58  45  62  CALM    28.05F
#TOLLGATE       N/A         53  41  64  SW2     29.98F
#TROY SCHOOL    N/A         68  48  49  CALM    29.91F
#UKIAH          N/A         61  45  56  CALM    30.02F
#WESTON 4E      N/A         62  43  50  SW3     30.01F
$$

ORZ505-252010-
JOHN DAY BASIN

CITY            SKY/WX      TMP DP  RH  WIND    PRES   REMARKS
JOHN DAY        PTCLDY      64  36  35  CALM    30.13F
#JOHN DAY KJDY  N/A         62  N/A N/A NW2     29.44R
#ANTELOPE 9ESE  N/A         67  41  39  NE2     N/A
#DAYVILLE SCHOOLN/A         62  37  39  CALM    30.07F
#MITCHELL       N/A         66  45  47  CALM    30.26F
#MITCHELL 8NW   N/A         60  36  41  N1      30.09
#MONUMENT HS    N/A         63  38  39  CALM    30.07F
#MT. VERNON 5SE N/A         59  38  45  CALM    30.09F
#WINLOCK        N/A         66  41  40  CALM    30.07F
$$

ORZ506-252010-
OCHOCO AND JOHN DAY HIGHLANDS

CITY            SKY/WX      TMP DP  RH  WIND    PRES   REMARKS
#HORSE RIDGE DO N/A         61  29  30  CALM    N/A
#IZEE 6NW       N/A         65  40  40  CALM    N/A
#PAULINA ODOT   N/A         59  34  39  CALM    N/A
#PINE MTN OBS   N/A         51  29  42  CALM    N/A
#PRAIRIE CITY   N/A         64  40  41  CALM    30.28F
#SENECA         N/A         58  N/A N/A W5      N/A
#SENECA 9NW     N/A         56  38  51  E1      30.12F
$$

ORZ049-252010-
GRANDE RONDE VALLEY

CITY            SKY/WX      TMP DP  RH  WIND    PRES   REMARKS
LA GRANDE       PTCLDY      61  43  51  VRB3    30.11F
#COVE           N/A         62  49  62  CALM    30.12F
#COVE SCHOOL    N/A         64  45  50  W1      30.11F
#COVE 6NW       N/A         61  45  56  CALM    30.10F
#ELGIN 3N       N/A         62  41  46  S3      30.49F
#ELGIN 1E       N/A         61  44  53  CALM    N/A
#IMBLER SCHOOL  N/A         58  44  60  CALM    30.06F
#ISLAND CITY 4N N/A         61  55  81  CALM    30.13F
#UNION 1S       N/A         64  45  50  CALM    30.08F
$$

ORZ050-252010-
WALLOWA COUNTY

CITY            SKY/WX      TMP DP  RH  WIND    PRES   REMARKS
JOSEPH AIRPORT  CLOUDY      61  36  39  N7      30.13F
#ENTERPRISE HS  N/A         63  42  46  NW2     29.98F
#JOSEPH         N/A         60  37  42  N6      30.30F
#JOSEPH 3N      N/A         60  45  58  CALM    30.13F
#JOSEPH 3W      N/A         57  44  62  CALM    30.49S
#LOSTINE        N/A         60  40  47  CALM    29.91F
#LOSTINE 3SE    N/A         60  41  49  NE3     30.17F
#MT HOWARD 8000 N/A         41  37  86  CALM    30.21S
#PROMISE 1S     N/A         59  43  55  SE1     30.14F
#WALLOWA LAKE   N/A         59  41  51  CALM    30.16F
#WALLOWA SCHOOL N/A         59  43  55  CALM    30.07F



$$



USA.gov is the U.S. government's official web portal to all federal, state and local government web resources and services.